Springfield, IL

2:01 PM CDT on September 25, 2017 (GMT -0500)
Capital

Weather History for KSPI - April, 2014

Change the Weather History Date:

Wednesday, April 23, 2014

  Actual Average Record
Temperature  
Mean Temperature 52 °F 56 °F  
Max Temperature 64 °F 68 °F 89 °F (1925)
Min Temperature 39 °F 45 °F 23 °F (1956)
Degree Days  
Heating Degree Days 13 10  
Month to date heating degree days 262 307  
Since 1 July heating degree days 6064 5289  
Cooling Degree Days 0 1  
Month to date cooling degree days 7 12  
Year to date cooling degree days 7 14  
Growing Degree Days 2 (Base 50)    
Moisture  
Dew Point 29 °F    
Average Humidity 47    
Maximum Humidity 70    
Minimum Humidity 23    
Precipitation  
Precipitation T in 0.13 in 1.54 in (1975)
Month to date precipitation 2.87 2.60  
Year to date precipitation 10.09 8.86  
Snow  
Snow 0.00 in 0.00 in 1.60 in (1910)
Month to date snowfall 0.1 0.3  
Since 1 July snowfall 45.7 20.9  
Snow Depth 0.00 in    
Sea Level Pressure  
Sea Level Pressure 30.08 in    
Wind  
Wind Speed 10 mph (East)    
Max Wind Speed 15 mph    
Max Gust Speed 21 mph    
Visibility 10 miles    
Events      
T = Trace of Precipitation, MM = Missing Value Source: NWS Daily Summary

Daily Weather History Graph

Daily Weather History Graph

Search for Another Location

Airport or City:

Trip Planner

Search our weather history database for the weather conditions in past years. The results will help you decide how hot, cold, wet, or windy it might be!

Date:

Astronomy

Apr. 23, 2014 Rise Set
Actual Time 6:09 AM CDT 7:45 PM CDT
Civil Twilight 5:41 AM CDT 8:13 PM CDT
Nautical Twilight 5:06 AM CDT 8:48 PM CDT
Astronomical Twilight 4:30 AM CDT 9:25 PM CDT
Moon 2:40 AM CDT (4/23) 1:54 PM CDT (4/23)
Length of Visible Light 14h 32m
Length of Day
13h 35m
Waning Crescent, 34% of the Moon is Illuminated
Apr 23
Waning Crescent
Apr 29
New
May 6
First Quarter
May 14
Full
May 21
Last Quarter

Hourly Weather History & Observations

Time (CDT) Temp. Windchill Dew Point Humidity Pressure Visibility Wind Dir Wind Speed Gust Speed Precip Events Conditions
12:52 AM 46.4 °F 41.9 °F 30.2 °F 53% 30.06 in 10.0 mi NE 9.2 mph - N/A   Clear
1:52 AM 45.0 °F 38.9 °F 33.1 °F 63% 30.07 in 10.0 mi ENE 12.7 mph - N/A   Clear
2:52 AM 43.0 °F 37.2 °F 30.9 °F 62% 30.09 in 10.0 mi East 10.4 mph - N/A   Clear
3:52 AM 41.0 °F 34.7 °F 30.9 °F 67% 30.11 in 10.0 mi ENE 10.4 mph - N/A   Clear
4:52 AM 39.2 °F 32.0 °F 30.2 °F 70% 30.11 in 10.0 mi East 11.5 mph - N/A   Clear
5:52 AM 39.9 °F 33.4 °F 28.0 °F 63% 30.12 in 10.0 mi East 10.4 mph - N/A   Clear
6:52 AM 41.0 °F 34.3 °F 28.0 °F 60% 30.14 in 10.0 mi East 11.5 mph - N/A   Clear
7:52 AM 44.1 °F 39.0 °F 28.9 °F 55% 30.19 in 10.0 mi East 9.2 mph - N/A   Clear
8:52 AM 48.0 °F - 30.0 °F 50% 30.17 in 10.0 mi East 12.7 mph - N/A   Clear
9:52 AM 51.1 °F - 30.0 °F 44% 30.17 in 10.0 mi East 12.7 mph - N/A   Clear
10:52 AM 54.0 °F - 30.9 °F 41% 30.16 in 10.0 mi ENE 9.2 mph 19.6 mph N/A   Clear
11:52 AM 55.9 °F - 30.9 °F 39% 30.16 in 10.0 mi SE 6.9 mph - N/A   Clear
12:52 PM 59.0 °F - 30.9 °F 35% 30.12 in 10.0 mi SSE 6.9 mph - N/A   Clear
1:52 PM 62.1 °F - 32.0 °F 32% 30.10 in 10.0 mi ENE 6.9 mph - N/A   Clear
2:52 PM 63.0 °F - 28.9 °F 28% 30.07 in 10.0 mi Variable 5.8 mph - N/A   Partly Cloudy
3:52 PM 64.0 °F - 28.0 °F 26% 30.05 in 10.0 mi ESE 9.2 mph - N/A   Mostly Cloudy
4:52 PM 62.1 °F - 25.0 °F 24% 30.06 in 10.0 mi ESE 6.9 mph - N/A   Clear
5:52 PM 62.1 °F - 26.1 °F 25% 30.03 in 10.0 mi East 10.4 mph - N/A   Overcast
6:52 PM 61.0 °F - 28.0 °F 29% 30.01 in 10.0 mi East 8.1 mph - 0.00 in   Partly Cloudy
7:52 PM 59.0 °F - 28.0 °F 31% 30.01 in 10.0 mi ESE 10.4 mph - N/A   Clear
8:52 PM 57.0 °F - 27.0 °F 32% 30.00 in 10.0 mi SE 11.5 mph - N/A   Partly Cloudy
9:52 PM 57.0 °F - 28.0 °F 33% 29.99 in 10.0 mi SE 11.5 mph - N/A   Clear
10:52 PM 55.9 °F - 30.0 °F 37% 29.98 in 10.0 mi SE 10.4 mph - N/A   Mostly Cloudy
11:52 PM 55.0 °F - 30.9 °F 40% 29.98 in 10.0 mi SE 9.2 mph - N/A   Clear